Flag for Norway Weather past 2 weeks in Mo i Rana, Norway

Now
32 °F

Partly sunny.


Feels Like: 32 °F
Forecast: 14 / 28 °F
Wind: 1 mph from Southwest

Location: Mo I Rana / Rossvoll

Current Time: Mar 3, 2015 at 8:51:24 AM

Latest Report: Mar 3, 2015 at 8:20 AM


Visibility: N/A

Pressure: 29.39 "Hg

Humidity: 100%

Dew point: 32 °F

Location of Mo i RanaLocation

Historic Weather in Mo i Rana — Graph

°F

Mo i Rana temperature yesterday

Maximum temperature yesterday: 39 °F (at 7:50 AM)
Minimum temperature yesterday: 32 °F (at 8:50 PM)
Average temperature yesterday: 37 °F

Past Weeks' High & Low Weather Summary

 TemperatureHumidityPressure
High41 °F (Feb 26, 12:20 PM)100% (Feb 18, 8:20 AM)30.04 "Hg (Feb 18, 8:20 AM)
Low14 °F (Feb 16, 8:50 AM)45% (Feb 28, 12:20 PM)28.88 "Hg (Mar 1, 7:20 PM)
Average32 °F81%29.34 "Hg
* Reported Feb 16 7:50 AM — Mar 3 7:50 AM, Mo i Rana, Weather by CustomWeather, © 2015

Note: Actual official high and low records may vary slightly from our data, if they occured in-between our weather recording intervals... More about our weather records

Advertising

Mo i Rana weather history for previous 24 hours

 ConditionsComfort  
Time TempWeatherWind HumidityBarometerVisibility
7:50 AM
Tue, Mar 3
32 °FPartly sunny.6 mph100%29.39 "HgN/A
6:50 AM32 °FPartly cloudy.2 mph100%29.36 "HgN/A
6:20 AM32 °FPartly cloudy.2 mph100%29.36 "HgN/A
5:50 AM32 °FPartly cloudy.2 mph100%29.33 "HgN/A
10:50 PM
Mon, Mar 2
32 °FScattered showers. Partly cloudy.2 mph93%29.18 "HgN/A
10:20 PM32 °FSnow flurries. Fog.2 mph93%29.18 "Hg3 mi
9:50 PM32 °FSprinkles. Partly cloudy.2 mph100%29.15 "Hg5 mi
9:20 PM32 °FSprinkles. Partly cloudy.2 mph93%29.15 "HgN/A
8:50 PM32 °FSprinkles. Partly cloudy.2 mph93%29.15 "Hg6 mi
8:20 PM34 °FSprinkles. Partly cloudy.2 mph87%29.12 "Hg6 mi
7:50 PM34 °FSprinkles. Partly cloudy.2 mph87%29.12 "HgN/A
7:20 PM34 °FScattered showers. Partly cloudy.2 mph81%29.12 "HgN/A
6:50 PM36 °FScattered showers. Partly cloudy.2 mph81%29.09 "HgN/A
6:20 PM37 °FScattered showers. Partly cloudy.3 mph70%29.09 "HgN/A
5:50 PM37 °FScattered showers. Partly cloudy.3 mph70%29.06 "HgN/A
5:20 PM37 °FScattered showers. Partly cloudy.5 mph70%29.06 "HgN/A
4:50 PM39 °FScattered showers. Broken clouds.6 mph61%29.06 "HgN/A
4:20 PM39 °FScattered showers. Broken clouds.7 mph61%29.06 "HgN/A
3:50 PM39 °FScattered showers. Broken clouds.6 mph61%29.06 "HgN/A
3:20 PM39 °FScattered showers. Broken clouds.9 mph61%29.03 "HgN/A
2:50 PM39 °FScattered showers. Broken clouds.7 mph61%29.03 "HgN/A
2:20 PM39 °FScattered showers. Broken clouds.7 mph61%29.03 "HgN/A
1:50 PM39 °FLight rain. Broken clouds.9 mph61%29.03 "HgN/A
1:20 PM39 °FBroken clouds.8 mph61%29.00 "HgN/A
12:50 PM39 °FBroken clouds.10 mph65%29.00 "HgN/A
12:20 PM39 °FBroken clouds.12 mph65%29.00 "HgN/A
11:50 AM37 °FBroken clouds.5 mph70%29.00 "HgN/A
11:20 AM39 °FBroken clouds.6 mph61%29.00 "HgN/A
10:50 AM39 °FPassing showers. Broken clouds.6 mph61%28.97 "HgN/A
10:20 AM39 °FPassing showers. Broken clouds.7 mph61%28.97 "HgN/A
9:50 AM39 °FBroken clouds.9 mph61%28.97 "HgN/A
9:20 AM39 °FBroken clouds.7 mph61%28.94 "HgN/A
8:50 AM39 °FBroken clouds.7 mph61%28.94 "HgN/A
8:20 AM39 °FScattered showers. Broken clouds.7 mph61%28.94 "HgN/A
Weather by CustomWeather, © 2015

See weather overviewHow to use our weather pages